#datetime,building,power
2023-09-14T00:00:00,pth,3.60
2023-09-14T00:02:00,pth,2.40
2023-09-14T00:03:00,pth,1.20
2023-09-14T00:05:00,pth,2.40
2023-09-14T00:07:00,pth,2.40
2023-09-14T00:09:00,pth,2.40
2023-09-14T00:10:00,pth,1.20
2023-09-14T00:12:00,pth,4.80
2023-09-14T00:14:00,pth,4.80
2023-09-14T00:16:00,pth,2.40
2023-09-14T00:17:00,pth,1.20
2023-09-14T00:19:00,pth,2.40
2023-09-14T00:20:00,pth,1.20
2023-09-14T00:22:00,pth,2.40
2023-09-14T00:24:00,pth,2.40
2023-09-14T00:25:00,pth,1.20
2023-09-14T00:27:00,pth,2.40
2023-09-14T00:29:00,pth,2.40
2023-09-14T00:30:00,pth,1.20
2023-09-14T00:32:00,pth,2.40
2023-09-14T00:33:00,pth,1.20
2023-09-14T00:35:00,pth,2.40
2023-09-14T00:37:00,pth,2.40
2023-09-14T00:38:00,pth,1.20
2023-09-14T00:40:00,pth,2.40
2023-09-14T00:42:00,pth,2.40
2023-09-14T00:43:00,pth,1.20
2023-09-14T00:44:00,pth,1.20
2023-09-14T00:46:00,pth,1.20
2023-09-14T00:47:00,pth,1.20
2023-09-14T00:49:00,pth,2.40
2023-09-14T00:51:00,pth,2.40
2023-09-14T00:53:00,pth,1.20
2023-09-14T00:55:00,pth,2.40
2023-09-14T00:57:00,pth,3.60
2023-09-14T00:58:00,pth,1.20
2023-09-14T01:00:00,pth,2.40
2023-09-14T01:03:00,pth,2.40
2023-09-14T01:05:00,pth,2.40
2023-09-14T01:06:00,pth,1.20
2023-09-14T01:08:00,pth,1.20
2023-09-14T01:09:00,pth,1.20
2023-09-14T01:11:00,pth,2.40
2023-09-14T01:12:00,pth,1.20
2023-09-14T01:14:00,pth,1.20
2023-09-14T01:16:00,pth,2.40
2023-09-14T01:18:00,pth,2.40
2023-09-14T01:20:00,pth,2.40
2023-09-14T01:22:00,pth,2.40
2023-09-14T01:23:00,pth,1.20
2023-09-14T01:25:00,pth,1.20
2023-09-14T01:27:00,pth,2.40
2023-09-14T01:28:00,pth,1.20
2023-09-14T01:30:00,pth,2.40
2023-09-14T01:32:00,pth,2.40
2023-09-14T01:34:00,pth,2.40
2023-09-14T01:36:00,pth,2.40
2023-09-14T01:38:00,pth,1.20
2023-09-14T01:40:00,pth,2.40
2023-09-14T01:42:00,pth,2.40
2023-09-14T01:44:00,pth,1.20
2023-09-14T01:46:00,pth,2.40
2023-09-14T01:48:00,pth,2.40
2023-09-14T01:49:00,pth,1.20
2023-09-14T01:51:00,pth,3.60
2023-09-14T01:52:00,pth,1.20
2023-09-14T01:53:00,pth,1.20
2023-09-14T01:55:00,pth,1.20
2023-09-14T01:57:00,pth,2.40
2023-09-14T01:58:00,pth,1.20
2023-09-14T02:00:00,pth,2.40
2023-09-14T02:01:00,pth,1.20
2023-09-14T02:03:00,pth,1.20
2023-09-14T02:04:00,pth,1.20
2023-09-14T02:06:00,pth,2.40
2023-09-14T02:08:00,pth,2.40
2023-09-14T02:10:00,pth,2.40
2023-09-14T02:12:00,pth,1.20
2023-09-14T02:13:00,pth,1.20
2023-09-14T02:15:00,pth,2.40
2023-09-14T02:16:00,pth,1.20
2023-09-14T02:18:00,pth,2.40
2023-09-14T02:21:00,pth,2.40
2023-09-14T02:22:00,pth,1.20
2023-09-14T02:23:00,pth,1.20
2023-09-14T02:25:00,pth,2.40
2023-09-14T02:27:00,pth,2.40
2023-09-14T02:29:00,pth,1.20
2023-09-14T02:30:00,pth,1.20
2023-09-14T02:32:00,pth,2.40
2023-09-14T02:34:00,pth,1.20
2023-09-14T02:36:00,pth,2.40
2023-09-14T02:37:00,pth,1.20
2023-09-14T02:39:00,pth,1.20
2023-09-14T02:40:00,pth,1.20
2023-09-14T02:42:00,pth,2.40
2023-09-14T02:44:00,pth,1.20
2023-09-14T02:46:00,pth,2.40
2023-09-14T02:48:00,pth,2.40
2023-09-14T02:50:00,pth,1.20
2023-09-14T02:51:00,pth,1.20
2023-09-14T02:53:00,pth,2.40
2023-09-14T02:54:00,pth,1.20
2023-09-14T02:56:00,pth,2.40
2023-09-14T02:58:00,pth,2.40
2023-09-14T03:01:00,pth,2.40
2023-09-14T03:03:00,pth,2.40
2023-09-14T03:05:00,pth,2.40
2023-09-14T03:07:00,pth,2.40
2023-09-14T03:08:00,pth,1.20
2023-09-14T03:10:00,pth,1.20
2023-09-14T03:11:00,pth,1.20
2023-09-14T03:12:00,pth,1.20
2023-09-14T03:14:00,pth,2.40
2023-09-14T03:16:00,pth,1.20
2023-09-14T03:18:00,pth,2.40
2023-09-14T03:20:00,pth,2.40
2023-09-14T03:22:00,pth,2.40
2023-09-14T03:24:00,pth,1.20
2023-09-14T03:26:00,pth,2.40
2023-09-14T03:28:00,pth,2.40
2023-09-14T03:30:00,pth,1.20
2023-09-14T03:32:00,pth,2.40
2023-09-14T03:33:00,pth,1.20
2023-09-14T03:35:00,pth,2.40
2023-09-14T03:37:00,pth,1.20
2023-09-14T03:38:00,pth,1.20
2023-09-14T03:40:00,pth,2.40
2023-09-14T03:42:00,pth,1.20
2023-09-14T03:43:00,pth,1.20
2023-09-14T03:45:00,pth,1.20
2023-09-14T03:47:00,pth,2.40
2023-09-14T03:49:00,pth,2.40
2023-09-14T03:52:00,pth,2.40
2023-09-14T03:53:00,pth,1.20
2023-09-14T03:55:00,pth,2.40
2023-09-14T03:58:00,pth,2.40
2023-09-14T04:00:00,pth,2.40
2023-09-14T04:02:00,pth,1.20
2023-09-14T04:03:00,pth,1.20
2023-09-14T04:05:00,pth,2.40
2023-09-14T04:07:00,pth,1.20
2023-09-14T04:09:00,pth,2.40
2023-09-14T04:10:00,pth,1.20
2023-09-14T04:12:00,pth,1.20
2023-09-14T04:14:00,pth,1.20
2023-09-14T04:16:00,pth,2.40
2023-09-14T04:18:00,pth,1.20
2023-09-14T04:19:00,pth,1.20
2023-09-14T04:21:00,pth,2.40
2023-09-14T04:23:00,pth,1.20
2023-09-14T04:25:00,pth,2.40
2023-09-14T04:26:00,pth,1.20
2023-09-14T04:29:00,pth,2.40
2023-09-14T04:31:00,pth,1.20
2023-09-14T04:33:00,pth,2.40
2023-09-14T04:36:00,pth,2.40
2023-09-14T04:38:00,pth,1.20
2023-09-14T04:40:00,pth,2.40
2023-09-14T04:42:00,pth,2.40
2023-09-14T04:44:00,pth,1.20
2023-09-14T04:46:00,pth,2.40
2023-09-14T04:48:00,pth,1.20
2023-09-14T04:50:00,pth,2.40
2023-09-14T04:51:00,pth,1.20
2023-09-14T04:53:00,pth,1.20
2023-09-14T04:55:00,pth,2.40
2023-09-14T04:57:00,pth,2.40
2023-09-14T04:59:00,pth,1.20
2023-09-14T05:01:00,pth,2.40
2023-09-14T05:03:00,pth,2.40
2023-09-14T05:05:00,pth,1.20
2023-09-14T05:07:00,pth,2.40
2023-09-14T05:09:00,pth,2.40
2023-09-14T05:11:00,pth,1.20
2023-09-14T05:12:00,pth,1.20
2023-09-14T05:14:00,pth,1.20
2023-09-14T05:16:00,pth,2.40
2023-09-14T05:18:00,pth,1.20
2023-09-14T05:20:00,pth,2.40
2023-09-14T05:22:00,pth,1.20
2023-09-14T05:24:00,pth,2.40
2023-09-14T05:25:00,pth,1.20
2023-09-14T05:26:00,pth,1.20
2023-09-14T05:28:00,pth,1.20
2023-09-14T05:29:00,pth,1.20
2023-09-14T05:31:00,pth,2.40
2023-09-14T05:34:00,pth,2.40
2023-09-14T05:35:00,pth,1.20
2023-09-14T05:38:00,pth,2.40
2023-09-14T05:40:00,pth,2.40
2023-09-14T05:42:00,pth,1.20
2023-09-14T05:43:00,pth,1.20
2023-09-14T05:45:00,pth,2.40
2023-09-14T05:48:00,pth,2.40
2023-09-14T05:50:00,pth,1.20
2023-09-14T05:51:00,pth,1.20
2023-09-14T05:52:00,pth,1.20
2023-09-14T05:54:00,pth,2.40
2023-09-14T05:56:00,pth,1.20
2023-09-14T05:57:00,pth,1.20
2023-09-14T05:59:00,pth,2.40
2023-09-14T06:02:00,pth,2.40
2023-09-14T06:03:00,pth,1.20
2023-09-14T06:05:00,pth,1.20
2023-09-14T06:07:00,pth,2.40
2023-09-14T06:08:00,pth,1.20
2023-09-14T06:10:00,pth,2.40
2023-09-14T06:12:00,pth,1.20
2023-09-14T06:14:00,pth,2.40
2023-09-14T06:16:00,pth,1.20
2023-09-14T06:17:00,pth,1.20
2023-09-14T06:18:00,pth,1.20
2023-09-14T06:19:00,pth,1.20
2023-09-14T06:21:00,pth,1.20
2023-09-14T06:23:00,pth,2.40
2023-09-14T06:25:00,pth,2.40
2023-09-14T06:26:00,pth,1.20
2023-09-14T06:27:00,pth,1.20
2023-09-14T06:29:00,pth,2.40
2023-09-14T06:30:00,pth,1.20
2023-09-14T06:32:00,pth,1.20
2023-09-14T06:34:00,pth,2.40
2023-09-14T06:35:00,pth,1.20
2023-09-14T06:37:00,pth,2.40
2023-09-14T06:38:00,pth,1.20
2023-09-14T06:39:00,pth,1.20
2023-09-14T06:41:00,pth,2.40
2023-09-14T06:42:00,pth,2.40
2023-09-14T06:43:00,pth,1.20
2023-09-14T06:45:00,pth,2.40
2023-09-14T06:46:00,pth,1.20
2023-09-14T06:47:00,pth,1.20
2023-09-14T06:49:00,pth,2.40
2023-09-14T06:51:00,pth,2.40
2023-09-14T06:52:00,pth,1.20
2023-09-14T06:55:00,pth,2.40
2023-09-14T06:57:00,pth,2.40
2023-09-14T06:58:00,pth,1.20
2023-09-14T07:00:00,pth,2.40
2023-09-14T07:02:00,pth,2.40
2023-09-14T07:04:00,pth,2.40
2023-09-14T07:06:00,pth,1.20
2023-09-14T07:08:00,pth,2.40
2023-09-14T07:09:00,pth,1.20
2023-09-14T07:11:00,pth,2.40
2023-09-14T07:12:00,pth,1.20
2023-09-14T07:14:00,pth,2.40
2023-09-14T07:15:00,pth,1.20
2023-09-14T07:17:00,pth,3.60
2023-09-14T07:18:00,pth,1.20
2023-09-14T07:20:00,pth,3.60
2023-09-14T07:21:00,pth,2.40
2023-09-14T07:23:00,pth,2.40
2023-09-14T07:25:00,pth,1.20
2023-09-14T07:27:00,pth,1.20
2023-09-14T07:29:00,pth,1.20
2023-09-14T07:32:00,pth,2.40
2023-09-14T07:34:00,pth,1.20
2023-09-14T07:35:00,pth,1.20
2023-09-14T07:37:00,pth,1.20
2023-09-14T07:38:00,pth,1.20
2023-09-14T07:39:00,pth,1.20
2023-09-14T07:41:00,pth,1.20
2023-09-14T07:43:00,pth,2.40
2023-09-14T07:44:00,pth,1.20
2023-09-14T07:45:00,pth,1.20
2023-09-14T07:47:00,pth,1.20
2023-09-14T07:49:00,pth,1.20
2023-09-14T07:51:00,pth,2.40
2023-09-14T07:54:00,pth,2.40
2023-09-14T07:55:00,pth,1.20
2023-09-14T07:57:00,pth,1.20
2023-09-14T07:58:00,pth,1.20
2023-09-14T08:00:00,pth,2.40
2023-09-14T08:02:00,pth,1.20
2023-09-14T08:04:00,pth,1.20
2023-09-14T08:05:00,pth,1.20
2023-09-14T08:06:00,pth,1.20
2023-09-14T08:08:00,pth,2.40
2023-09-14T08:10:00,pth,6.00
2023-09-14T08:12:00,pth,4.80
2023-09-14T08:14:00,pth,2.40
2023-09-14T08:16:00,pth,1.20
2023-09-14T08:17:00,pth,1.20
2023-09-14T08:19:00,pth,2.40
2023-09-14T08:21:00,pth,1.20
2023-09-14T08:23:00,pth,2.40
2023-09-14T08:25:00,pth,2.40
2023-09-14T08:26:00,pth,1.20
2023-09-14T08:28:00,pth,1.20
2023-09-14T08:29:00,pth,1.20
2023-09-14T08:30:00,pth,1.20
2023-09-14T08:32:00,pth,2.40
2023-09-14T08:34:00,pth,2.40
2023-09-14T08:35:00,pth,1.20
2023-09-14T08:37:00,pth,3.60
2023-09-14T08:39:00,pth,2.40
2023-09-14T08:41:00,pth,2.40
2023-09-14T08:42:00,pth,1.20
2023-09-14T08:43:00,pth,1.20
2023-09-14T08:44:00,pth,1.20
2023-09-14T08:46:00,pth,2.40
2023-09-14T08:48:00,pth,1.20
2023-09-14T08:50:00,pth,1.20
2023-09-14T08:52:00,pth,2.40
2023-09-14T08:53:00,pth,1.20
2023-09-14T08:55:00,pth,1.20
2023-09-14T08:57:00,pth,2.40
2023-09-14T08:59:00,pth,8.40
2023-09-14T09:00:00,pth,7.20
2023-09-14T09:01:00,pth,6.00
2023-09-14T09:03:00,pth,13.20
2023-09-14T09:04:00,pth,6.00
2023-09-14T09:06:00,pth,13.20
2023-09-14T09:07:00,pth,6.00
2023-09-14T09:09:00,pth,12.00
2023-09-14T09:10:00,pth,7.20
2023-09-14T09:12:00,pth,12.00
2023-09-14T09:14:00,pth,12.00
2023-09-14T09:15:00,pth,7.20
2023-09-14T09:17:00,pth,13.20
2023-09-14T09:19:00,pth,14.40
2023-09-14T09:21:00,pth,14.40
2023-09-14T09:22:00,pth,6.00
2023-09-14T09:23:00,pth,7.20
2023-09-14T09:25:00,pth,12.00
2023-09-14T09:27:00,pth,12.00
2023-09-14T09:29:00,pth,13.20
2023-09-14T09:30:00,pth,6.00
2023-09-14T09:31:00,pth,7.20
2023-09-14T09:33:00,pth,12.00
2023-09-14T09:35:00,pth,13.20
2023-09-14T09:37:00,pth,13.20
2023-09-14T09:38:00,pth,6.00
2023-09-14T09:39:00,pth,6.00
2023-09-14T09:40:00,pth,7.20
2023-09-14T09:42:00,pth,9.60
2023-09-14T09:43:00,pth,1.20
2023-09-14T09:44:00,pth,2.40
2023-09-14T09:46:00,pth,12.00
2023-09-14T09:47:00,pth,7.20
2023-09-14T09:49:00,pth,6.00
2023-09-14T09:51:00,pth,6.00
2023-09-14T09:52:00,pth,6.00
2023-09-14T09:54:00,pth,12.00
2023-09-14T09:56:00,pth,2.40
2023-09-14T09:58:00,pth,8.40
2023-09-14T10:00:00,pth,2.40
2023-09-14T10:02:00,pth,1.20
2023-09-14T10:03:00,pth,1.20
2023-09-14T10:05:00,pth,2.40
2023-09-14T10:08:00,pth,1.20
2023-09-14T10:09:00,pth,1.20
2023-09-14T10:11:00,pth,1.20
2023-09-14T10:13:00,pth,1.20
2023-09-14T10:15:00,pth,2.40
2023-09-14T10:17:00,pth,1.20
2023-09-14T10:19:00,pth,1.20
2023-09-14T10:20:00,pth,1.20
2023-09-14T10:22:00,pth,1.20
2023-09-14T10:24:00,pth,1.20
2023-09-14T10:25:00,pth,1.20
2023-09-14T10:27:00,pth,1.20
2023-09-14T10:29:00,pth,2.40
2023-09-14T10:32:00,pth,2.40
2023-09-14T10:35:00,pth,1.20
2023-09-14T10:37:00,pth,1.20
2023-09-14T10:38:00,pth,1.20
2023-09-14T10:40:00,pth,1.20
2023-09-14T10:41:00,pth,1.20
2023-09-14T10:43:00,pth,1.20
2023-09-14T10:45:00,pth,1.20
2023-09-14T10:47:00,pth,1.20
2023-09-14T10:48:00,pth,1.20
2023-09-14T10:50:00,pth,1.20
2023-09-14T10:52:00,pth,2.40
2023-09-14T10:55:00,pth,1.20
2023-09-14T10:56:00,pth,1.20
2023-09-14T10:58:00,pth,1.20
2023-09-14T11:00:00,pth,1.20
2023-09-14T11:01:00,pth,1.20
2023-09-14T11:03:00,pth,1.20
2023-09-14T11:05:00,pth,1.20
2023-09-14T11:06:00,pth,1.20
2023-09-14T11:08:00,pth,1.20
2023-09-14T11:10:00,pth,1.20
2023-09-14T11:12:00,pth,1.20
2023-09-14T11:14:00,pth,1.20
2023-09-14T11:15:00,pth,1.20
2023-09-14T11:18:00,pth,1.20
2023-09-14T11:19:00,pth,1.20
2023-09-14T11:21:00,pth,1.20
2023-09-14T11:23:00,pth,1.20
2023-09-14T11:24:00,pth,1.20
2023-09-14T11:27:00,pth,2.40
2023-09-14T11:29:00,pth,1.20
2023-09-14T11:31:00,pth,1.20
2023-09-14T11:33:00,pth,1.20
2023-09-14T11:35:00,pth,1.20
2023-09-14T11:37:00,pth,1.20
2023-09-14T11:38:00,pth,1.20
2023-09-14T11:40:00,pth,1.20
2023-09-14T11:42:00,pth,1.20
2023-09-14T11:45:00,pth,1.20
2023-09-14T11:46:00,pth,1.20
2023-09-14T11:48:00,pth,1.20
2023-09-14T11:50:00,pth,1.20
2023-09-14T11:52:00,pth,2.40
2023-09-14T11:54:00,pth,1.20
2023-09-14T11:55:00,pth,1.20
2023-09-14T11:57:00,pth,1.20
2023-09-14T11:59:00,pth,1.20
2023-09-14T12:01:00,pth,1.20
2023-09-14T12:03:00,pth,1.20
2023-09-14T12:05:00,pth,1.20
2023-09-14T12:06:00,pth,1.20
2023-09-14T12:08:00,pth,1.20
2023-09-14T12:09:00,pth,1.20
2023-09-14T12:11:00,pth,1.20
2023-09-14T12:13:00,pth,1.20
2023-09-14T12:15:00,pth,1.20
2023-09-14T12:17:00,pth,1.20
2023-09-14T12:18:00,pth,1.20
2023-09-14T12:20:00,pth,1.20
2023-09-14T12:22:00,pth,1.20
2023-09-14T12:23:00,pth,1.20
2023-09-14T12:25:00,pth,1.20
2023-09-14T12:27:00,pth,1.20
2023-09-14T12:28:00,pth,1.20
2023-09-14T12:29:00,pth,1.20
2023-09-14T12:31:00,pth,1.20
2023-09-14T12:33:00,pth,1.20
2023-09-14T12:35:00,pth,1.20
2023-09-14T12:36:00,pth,1.20
2023-09-14T12:38:00,pth,2.40
2023-09-14T12:40:00,pth,1.20
2023-09-14T12:42:00,pth,2.40
2023-09-14T12:44:00,pth,1.20
2023-09-14T12:46:00,pth,1.20
2023-09-14T12:47:00,pth,1.20
2023-09-14T12:48:00,pth,1.20
2023-09-14T12:50:00,pth,1.20
2023-09-14T12:53:00,pth,2.40
2023-09-14T12:55:00,pth,1.20
2023-09-14T12:56:00,pth,1.20
2023-09-14T12:58:00,pth,1.20
2023-09-14T13:00:00,pth,2.40
2023-09-14T13:01:00,pth,1.20
2023-09-14T13:03:00,pth,1.20
2023-09-14T13:05:00,pth,1.20
2023-09-14T13:07:00,pth,1.20
2023-09-14T13:08:00,pth,1.20
2023-09-14T13:10:00,pth,1.20
2023-09-14T13:13:00,pth,2.40
2023-09-14T13:16:00,pth,1.20
2023-09-14T13:17:00,pth,1.20
2023-09-14T13:19:00,pth,1.20
2023-09-14T13:22:00,pth,2.40
2023-09-14T13:24:00,pth,1.20
2023-09-14T13:25:00,pth,1.20
2023-09-14T13:27:00,pth,1.20
2023-09-14T13:28:00,pth,1.20
2023-09-14T13:31:00,pth,2.40
2023-09-14T13:33:00,pth,1.20
2023-09-14T13:34:00,pth,1.20
2023-09-14T13:37:00,pth,1.20
2023-09-14T13:39:00,pth,2.40
2023-09-14T13:40:00,pth,1.20
2023-09-14T13:42:00,pth,3.60
2023-09-14T13:43:00,pth,1.20
2023-09-14T13:45:00,pth,2.40
2023-09-14T13:47:00,pth,1.20
2023-09-14T13:49:00,pth,2.40
2023-09-14T13:51:00,pth,1.20
2023-09-14T13:52:00,pth,1.20
2023-09-14T13:54:00,pth,2.40
2023-09-14T13:56:00,pth,1.20
2023-09-14T13:58:00,pth,2.40
2023-09-14T14:01:00,pth,2.40
2023-09-14T14:03:00,pth,2.40
2023-09-14T14:05:00,pth,1.20
2023-09-14T14:07:00,pth,2.40
2023-09-14T14:09:00,pth,1.20
2023-09-14T14:11:00,pth,2.40
2023-09-14T14:13:00,pth,2.40
2023-09-14T14:15:00,pth,2.40
2023-09-14T14:17:00,pth,2.40
2023-09-14T14:18:00,pth,1.20
2023-09-14T14:19:00,pth,1.20
2023-09-14T14:21:00,pth,2.40
2023-09-14T14:23:00,pth,2.40
2023-09-14T14:25:00,pth,2.40
2023-09-14T14:27:00,pth,2.40
2023-09-14T14:29:00,pth,2.40
2023-09-14T14:31:00,pth,2.40
2023-09-14T14:32:00,pth,1.20
2023-09-14T14:33:00,pth,1.20
2023-09-14T14:34:00,pth,1.20
2023-09-14T14:36:00,pth,2.40
2023-09-14T14:37:00,pth,1.20
2023-09-14T14:39:00,pth,2.40
2023-09-14T14:40:00,pth,1.20
2023-09-14T14:42:00,pth,1.20
2023-09-14T14:44:00,pth,2.40
2023-09-14T14:45:00,pth,1.20
2023-09-14T14:47:00,pth,1.20
2023-09-14T14:48:00,pth,1.20
2023-09-14T14:50:00,pth,2.40
2023-09-14T14:53:00,pth,2.40
2023-09-14T14:54:00,pth,1.20
2023-09-14T14:56:00,pth,2.40
2023-09-14T14:57:00,pth,1.20
2023-09-14T14:59:00,pth,1.20
2023-09-14T15:00:00,pth,1.20
2023-09-14T15:02:00,pth,1.20
2023-09-14T15:04:00,pth,2.40
2023-09-14T15:06:00,pth,2.40
2023-09-14T15:08:00,pth,3.60
2023-09-14T15:10:00,pth,1.20
2023-09-14T15:12:00,pth,2.40
2023-09-14T15:13:00,pth,1.20
2023-09-14T15:15:00,pth,1.20
2023-09-14T15:17:00,pth,2.40
2023-09-14T15:18:00,pth,1.20
2023-09-14T15:20:00,pth,1.20
2023-09-14T15:21:00,pth,1.20
2023-09-14T15:23:00,pth,2.40
2023-09-14T15:24:00,pth,1.20
2023-09-14T15:27:00,pth,2.40
2023-09-14T15:29:00,pth,1.20
2023-09-14T15:31:00,pth,2.40
2023-09-14T15:33:00,pth,1.20
2023-09-14T15:35:00,pth,2.40
2023-09-14T15:37:00,pth,1.20
2023-09-14T15:39:00,pth,2.40
2023-09-14T15:40:00,pth,1.20
2023-09-14T15:42:00,pth,1.20
2023-09-14T15:43:00,pth,1.20
2023-09-14T15:45:00,pth,1.20
2023-09-14T15:47:00,pth,2.40
2023-09-14T15:49:00,pth,1.20
2023-09-14T15:50:00,pth,1.20
2023-09-14T15:51:00,pth,1.20
2023-09-14T15:53:00,pth,2.40
2023-09-14T15:55:00,pth,2.40
2023-09-14T15:56:00,pth,2.40
2023-09-14T15:57:00,pth,1.20
2023-09-14T15:59:00,pth,2.40
2023-09-14T16:01:00,pth,2.40
2023-09-14T16:03:00,pth,2.40
2023-09-14T16:05:00,pth,2.40
2023-09-14T16:06:00,pth,1.20
2023-09-14T16:08:00,pth,1.20
2023-09-14T16:09:00,pth,1.20
2023-09-14T16:12:00,pth,2.40
2023-09-14T16:14:00,pth,1.20
2023-09-14T16:15:00,pth,1.20
2023-09-14T16:17:00,pth,1.20
2023-09-14T16:19:00,pth,2.40
2023-09-14T16:22:00,pth,2.40
2023-09-14T16:24:00,pth,1.20
2023-09-14T16:25:00,pth,1.20
2023-09-14T16:26:00,pth,1.20
2023-09-14T16:28:00,pth,1.20
2023-09-14T16:29:00,pth,1.20
2023-09-14T16:31:00,pth,2.40
2023-09-14T16:33:00,pth,1.20
2023-09-14T16:35:00,pth,2.40
2023-09-14T16:37:00,pth,2.40
2023-09-14T16:39:00,pth,2.40
2023-09-14T16:41:00,pth,1.20
2023-09-14T16:42:00,pth,1.20
2023-09-14T16:44:00,pth,2.40
2023-09-14T16:46:00,pth,1.20
2023-09-14T16:48:00,pth,2.40
2023-09-14T16:49:00,pth,1.20
2023-09-14T16:51:00,pth,1.20
2023-09-14T16:52:00,pth,1.20
2023-09-14T16:54:00,pth,2.40
2023-09-14T16:56:00,pth,2.40
2023-09-14T16:58:00,pth,1.20
2023-09-14T16:59:00,pth,1.20
2023-09-14T17:01:00,pth,1.20
2023-09-14T17:03:00,pth,2.40
2023-09-14T17:05:00,pth,1.20
2023-09-14T17:06:00,pth,1.20
2023-09-14T17:08:00,pth,2.40
2023-09-14T17:09:00,pth,1.20
2023-09-14T17:11:00,pth,1.20
2023-09-14T17:12:00,pth,1.20
2023-09-14T17:14:00,pth,1.20
2023-09-14T17:16:00,pth,1.20
2023-09-14T17:17:00,pth,1.20
2023-09-14T17:19:00,pth,1.20
2023-09-14T17:21:00,pth,1.20
2023-09-14T17:23:00,pth,1.20
2023-09-14T17:24:00,pth,1.20
2023-09-14T17:25:00,pth,1.20
2023-09-14T17:27:00,pth,1.20
2023-09-14T17:29:00,pth,2.40
2023-09-14T17:31:00,pth,1.20
2023-09-14T17:33:00,pth,1.20
2023-09-14T17:35:00,pth,1.20
2023-09-14T17:37:00,pth,2.40
2023-09-14T17:39:00,pth,1.20
2023-09-14T17:41:00,pth,1.20
2023-09-14T17:42:00,pth,1.20
2023-09-14T17:44:00,pth,1.20
2023-09-14T17:46:00,pth,1.20
2023-09-14T17:48:00,pth,1.20
2023-09-14T17:49:00,pth,1.20
2023-09-14T17:51:00,pth,1.20
2023-09-14T17:53:00,pth,1.20
2023-09-14T17:54:00,pth,1.20
2023-09-14T17:56:00,pth,1.20
2023-09-14T17:57:00,pth,1.20
2023-09-14T17:59:00,pth,1.20
2023-09-14T18:01:00,pth,2.40
2023-09-14T18:03:00,pth,1.20
2023-09-14T18:05:00,pth,2.40
2023-09-14T18:07:00,pth,1.20
2023-09-14T18:09:00,pth,1.20
2023-09-14T18:10:00,pth,2.40
2023-09-14T18:12:00,pth,2.40
2023-09-14T18:13:00,pth,1.20
2023-09-14T18:15:00,pth,2.40
2023-09-14T18:17:00,pth,2.40
2023-09-14T18:19:00,pth,1.20
2023-09-14T18:20:00,pth,1.20
2023-09-14T18:22:00,pth,1.20
2023-09-14T18:24:00,pth,2.40
2023-09-14T18:26:00,pth,1.20
2023-09-14T18:28:00,pth,2.40
2023-09-14T18:30:00,pth,1.20
2023-09-14T18:32:00,pth,2.40
2023-09-14T18:35:00,pth,2.40
2023-09-14T18:37:00,pth,1.20
2023-09-14T18:39:00,pth,2.40
2023-09-14T18:40:00,pth,1.20
2023-09-14T18:42:00,pth,2.40
2023-09-14T18:44:00,pth,2.40
2023-09-14T18:45:00,pth,1.20
2023-09-14T18:47:00,pth,1.20
2023-09-14T18:49:00,pth,2.40
2023-09-14T18:50:00,pth,1.20
2023-09-14T18:52:00,pth,1.20
2023-09-14T18:53:00,pth,2.40
2023-09-14T18:55:00,pth,1.20
2023-09-14T18:57:00,pth,2.40
2023-09-14T18:59:00,pth,2.40
2023-09-14T19:00:00,pth,1.20
2023-09-14T19:02:00,pth,2.40
2023-09-14T19:04:00,pth,2.40
2023-09-14T19:06:00,pth,1.20
2023-09-14T19:07:00,pth,1.20
2023-09-14T19:09:00,pth,2.40
2023-09-14T19:10:00,pth,1.20
2023-09-14T19:12:00,pth,2.40
2023-09-14T19:13:00,pth,1.20
2023-09-14T19:15:00,pth,2.40
2023-09-14T19:16:00,pth,1.20
2023-09-14T19:18:00,pth,2.40
2023-09-14T19:20:00,pth,2.40
2023-09-14T19:22:00,pth,2.40
2023-09-14T19:23:00,pth,1.20
2023-09-14T19:25:00,pth,2.40
2023-09-14T19:27:00,pth,2.40
2023-09-14T19:29:00,pth,2.40
2023-09-14T19:31:00,pth,2.40
2023-09-14T19:32:00,pth,1.20
2023-09-14T19:34:00,pth,2.40
2023-09-14T19:35:00,pth,1.20
2023-09-14T19:36:00,pth,1.20
2023-09-14T19:38:00,pth,2.40
2023-09-14T19:40:00,pth,3.60
2023-09-14T19:41:00,pth,1.20
2023-09-14T19:42:00,pth,1.20
2023-09-14T19:44:00,pth,2.40
2023-09-14T19:46:00,pth,3.60
2023-09-14T19:48:00,pth,2.40
2023-09-14T19:50:00,pth,2.40
2023-09-14T19:52:00,pth,3.60
2023-09-14T19:53:00,pth,1.20
2023-09-14T19:55:00,pth,1.20
2023-09-14T19:56:00,pth,1.20
2023-09-14T19:58:00,pth,2.40
2023-09-14T20:00:00,pth,2.40
2023-09-14T20:02:00,pth,2.40
2023-09-14T20:03:00,pth,1.20
2023-09-14T20:05:00,pth,2.40
2023-09-14T20:06:00,pth,1.20
2023-09-14T20:07:00,pth,1.20
2023-09-14T20:09:00,pth,1.20
2023-09-14T20:10:00,pth,1.20
2023-09-14T20:12:00,pth,1.20
2023-09-14T20:13:00,pth,1.20
2023-09-14T20:15:00,pth,2.40
2023-09-14T20:17:00,pth,3.60
2023-09-14T20:18:00,pth,7.20
2023-09-14T20:20:00,pth,13.20
2023-09-14T20:22:00,pth,13.20
2023-09-14T20:23:00,pth,6.00
2023-09-14T20:25:00,pth,13.20
2023-09-14T20:26:00,pth,7.20
2023-09-14T20:28:00,pth,13.20
2023-09-14T20:29:00,pth,6.00
2023-09-14T20:31:00,pth,13.20
2023-09-14T20:33:00,pth,13.20
2023-09-14T20:34:00,pth,7.20
2023-09-14T20:36:00,pth,13.20
2023-09-14T20:38:00,pth,13.20
2023-09-14T20:39:00,pth,7.20
2023-09-14T20:41:00,pth,13.20
2023-09-14T20:42:00,pth,7.20
2023-09-14T20:44:00,pth,6.00
2023-09-14T20:45:00,pth,6.00
2023-09-14T20:47:00,pth,14.40
2023-09-14T20:48:00,pth,3.60
2023-09-14T20:50:00,pth,7.20
2023-09-14T20:52:00,pth,14.40
2023-09-14T20:53:00,pth,2.40
2023-09-14T20:55:00,pth,8.40
2023-09-14T20:57:00,pth,13.20
2023-09-14T20:59:00,pth,4.80
2023-09-14T21:01:00,pth,12.00
2023-09-14T21:02:00,pth,6.00
2023-09-14T21:03:00,pth,2.40
2023-09-14T21:05:00,pth,9.60
2023-09-14T21:07:00,pth,9.60
2023-09-14T21:08:00,pth,2.40
2023-09-14T21:10:00,pth,13.20
2023-09-14T21:12:00,pth,7.20
2023-09-14T21:13:00,pth,4.80
2023-09-14T21:14:00,pth,6.00
2023-09-14T21:16:00,pth,10.80
2023-09-14T21:18:00,pth,2.40
2023-09-14T21:20:00,pth,2.40
2023-09-14T21:22:00,pth,2.40
2023-09-14T21:23:00,pth,1.20
2023-09-14T21:25:00,pth,2.40
2023-09-14T21:27:00,pth,2.40
2023-09-14T21:29:00,pth,2.40
2023-09-14T21:31:00,pth,2.40
2023-09-14T21:32:00,pth,1.20
2023-09-14T21:34:00,pth,3.60
2023-09-14T21:36:00,pth,2.40
2023-09-14T21:38:00,pth,2.40
2023-09-14T21:40:00,pth,3.60
2023-09-14T21:41:00,pth,1.20
2023-09-14T21:43:00,pth,6.00
2023-09-14T21:44:00,pth,7.20
2023-09-14T21:46:00,pth,13.20
2023-09-14T21:47:00,pth,7.20
2023-09-14T21:49:00,pth,9.60
2023-09-14T21:51:00,pth,14.40
2023-09-14T21:53:00,pth,8.40
2023-09-14T21:55:00,pth,9.60
2023-09-14T21:57:00,pth,13.20
2023-09-14T21:59:00,pth,8.40
2023-09-14T22:01:00,pth,4.80
2023-09-14T22:03:00,pth,3.60
2023-09-14T22:04:00,pth,1.20
2023-09-14T22:06:00,pth,2.40
2023-09-14T22:08:00,pth,3.60
2023-09-14T22:10:00,pth,2.40
2023-09-14T22:12:00,pth,2.40
2023-09-14T22:14:00,pth,3.60
2023-09-14T22:16:00,pth,2.40
2023-09-14T22:18:00,pth,2.40
2023-09-14T22:20:00,pth,2.40
2023-09-14T22:22:00,pth,2.40
2023-09-14T22:24:00,pth,3.60
2023-09-14T22:26:00,pth,2.40
2023-09-14T22:28:00,pth,2.40
2023-09-14T22:29:00,pth,1.20
2023-09-14T22:31:00,pth,3.60
2023-09-14T22:32:00,pth,1.20
2023-09-14T22:34:00,pth,2.40
2023-09-14T22:36:00,pth,2.40
2023-09-14T22:38:00,pth,2.40
2023-09-14T22:40:00,pth,2.40
2023-09-14T22:42:00,pth,2.40
2023-09-14T22:44:00,pth,3.60
2023-09-14T22:46:00,pth,2.40
2023-09-14T22:47:00,pth,1.20
2023-09-14T22:49:00,pth,1.20
2023-09-14T22:51:00,pth,2.40
2023-09-14T22:52:00,pth,1.20
2023-09-14T22:54:00,pth,2.40
2023-09-14T22:56:00,pth,2.40
2023-09-14T22:58:00,pth,2.40
2023-09-14T23:00:00,pth,2.40
2023-09-14T23:02:00,pth,2.40
2023-09-14T23:03:00,pth,2.40
2023-09-14T23:05:00,pth,2.40
2023-09-14T23:07:00,pth,2.40
2023-09-14T23:09:00,pth,2.40
2023-09-14T23:11:00,pth,2.40
2023-09-14T23:13:00,pth,3.60
2023-09-14T23:15:00,pth,2.40
2023-09-14T23:16:00,pth,1.20
2023-09-14T23:18:00,pth,2.40
2023-09-14T23:19:00,pth,1.20
2023-09-14T23:21:00,pth,2.40
2023-09-14T23:22:00,pth,1.20
2023-09-14T23:24:00,pth,2.40
2023-09-14T23:26:00,pth,2.40
2023-09-14T23:28:00,pth,2.40
2023-09-14T23:30:00,pth,4.80
2023-09-14T23:31:00,pth,1.20
2023-09-14T23:33:00,pth,3.60
2023-09-14T23:35:00,pth,2.40
2023-09-14T23:36:00,pth,1.20
2023-09-14T23:38:00,pth,2.40
2023-09-14T23:40:00,pth,2.40
2023-09-14T23:41:00,pth,1.20
2023-09-14T23:43:00,pth,2.40
2023-09-14T23:45:00,pth,2.40
2023-09-14T23:46:00,pth,1.20
2023-09-14T23:48:00,pth,2.40
2023-09-14T23:50:00,pth,2.40
2023-09-14T23:53:00,pth,3.60
2023-09-14T23:54:00,pth,1.20
2023-09-14T23:56:00,pth,2.40